Location: Los Ranchitos
(37.9930°N, 122.5425°W)
Time: 02:40:09
(UTC+00:00)

Okean 1 Rocket - Pass Details

Date: 21 September 2020
Orbit: 605 x 635 km, 82.5° (Epoch: 27 October)

Event Time Altitude Azimuth Distance (km) Brightness Sun altitude
Exits shadow 04:30:25 57° 289° (WNW) 752 3.6 -27.8°
Drops below altitude 10° 04:34:42 10° 359° (N) 2,029 6.0 -28.6°
Sets 04:37:00 0° 3° (N) 2,941 6.8 -29.0°
